Wind_Speed
58 57 55 52 49 47 45 43 42 40 39 38 36 34 33 33 33 35 37 40 41 42 42 42 42 43 45 50 58 67 75 81 85 85 84 84 84 84 82 80 77 76 75
58 57 54 51 49 46 45 43 43 42 41 39 37 36 34 32 32 33 35 37 39 41 42 42 42 43 44 46 51 57 65 73 80 82 83 84 85 85 84 83 80 78 77
58 56 54 51 49 47 46 46 45 45 44 42 40 38 36 34 33 32 33 35 37 40 41 43 42 42 43 44 47 51 57 64 72 77 78 80 82 84 84 84 83 81 79
58 56 54 52 50 49 48 49 49 48 47 45 43 41 39 37 35 33 33 33 35 38 40 42 43 43 43 43 45 48 51 56 62 69 72 75 78 81 82 83 82 82 81
58 56 55 52 52 51 51 51 52 52 51 50 48 46 43 40 38 36 34 33 33 36 38 41 43 44 44 43 44 45 47 50 54 59 64 68 72 76 78 80 80 80 81
58 57 55 53 53 53 54 54 55 55 54 53 51 47 43 41 39 38 36 34 33 35 37 40 42 44 44 44 43 44 45 46 49 52 55 59 64 69 73 75 77 78 79
58 57 56 55 55 55 56 58 58 58 57 55 49 43 38 35 35 36 37 35 33 34 36 38 41 44 45 44 44 44 43 44 46 47 49 51 55 60 64 68 71 73 74
58 58 57 57 57 57 59 60 61 61 59 52 45 37 30 25 24 28 33 34 33 33 34 36 39 42 44 45 45 44 43 43 43 44 45 46 48 52 56 60 63 66 68
58 59 59 58 59 59 61 62 63 62 58 51 43 33 23 15 14 19 25 28 30 31 32 34 38 41 43 45 45 45 44 43 43 42 42 42 43 46 50 54 58 60 62
59 59 60 60 60 61 62 64 65 63 59 52 42 30 19 9 7 12 18 22 24 26 28 31 35 39 42 44 45 45 44 43 43 42 41 40 41 42 45 49 52 54 57
58 60 61 61 61 62 63 64 65 64 59 52 41 30 19 7 3 8 11 15 18 21 24 28 33 37 40 42 44 45 44 44 43 42 40 39 39 40 42 46 49 51 54
58 59 60 61 62 62 63 64 65 64 60 54 43 31 20 11 3 2 5 8 13 17 21 25 30 34 38 40 43 45 45 45 44 44 42 40 39 39 41 44 47 48 51
57 58 59 61 62 62 63 64 64 65 62 57 48 36 25 15 8 3 1 5 8 13 18 22 26 31 35 38 42 44 45 45 46 45 45 43 41 41 42 44 46 49 50
56 57 58 59 61 62 63 64 64 65 63 59 53 42 31 22 14 7 3 1 5 9 13 17 22 27 32 36 40 43 45 46 47 47 47 46 44 44 44 45 46 48 50
55 56 57 58 60 61 63 64 65 65 64 61 57 50 40 29 20 13 7 3 2 5 10 14 18 23 28 33 38 41 44 46 47 48 48 48 47 46 47 46 46 47 49
53 54 55 57 59 60 61 63 64 64 63 61 58 54 48 39 30 21 14 8 4 3 7 11 15 19 24 30 35 39 42 45 47 49 49 50 49 49 49 48 47 47 47
51 52 54 56 57 59 60 60 61 62 62 61 59 55 52 47 40 32 23 16 10 6 5 8 12 16 20 26 31 36 40 44 47 49 50 51 51 51 50 49 49 48 48
50 51 53 54 56 57 58 59 59 60 61 60 59 57 53 50 46 42 35 27 18 12 8 7 9 13 17 22 28 34 38 42 45 48 50 51 52 52 51 50 50 50 49
48 49 51 52 54 56 57 58 58 59 59 59 58 57 55 52 49 46 42 37 31 22 15 9 8 10 14 18 23 30 36 40 44 47 49 51 52 52 52 52 51 50 50
47 48 49 51 52 54 55 56 57 57 57 58 58 57 55 53 50 48 46 42 38 33 26 19 11 8 10 15 20 25 32 38 42 45 48 50 52 52 52 53 52 51 51
45 46 48 49 50 52 53 54 55 55 56 57 57 57 56 54 52 49 47 45 42 38 34 28 22 14 9 10 15 21 27 34 39 43 46 49 51 52 52 53 53 53 52
44 45 46 47 49 50 51 52 53 54 55 55 56 56 56 55 53 51 48 46 44 41 38 34 29 23 16 9 9 15 22 28 35 40 44 47 50 51 52 52 53 53 53
43 44 45 46 47 49 50 50 51 52 53 54 55 55 55 55 54 53 50 48 45 43 40 37 34 29 24 17 10 7 14 22 29 35 41 45 48 50 52 52 52 52 53
43 43 44 45 46 47 48 49 50 51 52 53 54 54 54 54 54 53 52 50 47 44 42 39 37 33 29 24 17 10 6 12 21 29 36 41 45 48 51 52 52 51 51
42 43 43 44 44 45 46 47 48 49 50 51 52 53 54 54 54 53 53 51 48 46 43 40 38 35 32 28 23 17 10 6 11 20 29 35 41 46 49 51 52 52 51
40 42 43 43 43 44 45 45 46 47 48 49 50 51 51 52 53 53 52 52 50 48 45 42 39 37 34 31 27 22 16 10 6 11 20 28 35 41 46 49 51 52 52
Wind_Direction
338 337 335 334 333 332 330 329 327 323 319 314 311 307 298 288 277 267 259 252 248 246 244 242 240 238 236 233 231 230 229 226 224 222 224 226 226 226 226 226 227 228 228
340 339 338 336 335 333 331 329 327 324 321 316 310 306 301 294 284 273 262 254 247 244 242 240 239 237 235 233 230 229 229 228 226 224 224 226 227 227 227 227 227 228 229
342 342 341 339 337 335 332 329 326 324 320 316 311 305 300 294 287 278 267 256 248 243 240 238 237 235 233 232 230 228 227 228 228 226 225 226 227 228 228 228 228 229 230
344 344 343 341 340 337 334 331 328 325 321 316 310 304 298 292 285 278 270 259 249 242 238 236 234 233 232 230 229 227 226 225 227 227 226 227 227 228 229 230 230 230 230
346 346 345 343 341 339 337 334 331 327 322 317 310 302 295 288 281 274 268 260 250 242 237 233 232 231 230 228 227 226 224 223 224 225 226 226 227 228 229 230 231 231 232
348 348 347 346 344 342 340 337 334 330 325 320 313 304 294 284 275 269 263 257 249 241 235 231 229 228 228 227 226 224 223 222 221 222 223 224 225 227 229 230 231 232 233
350 349 349 348 347 345 343 341 338 335 331 326 320 311 299 284 270 261 256 252 246 240 233 229 226 225 225 224 224 223 221 219 219 219 220 221 222 224 226 229 231 231 233
351 352 352 351 350 348 347 345 343 341 339 335 330 322 309 291 268 253 248 245 241 237 232 227 225 223 222 222 221 221 220 218 217 217 216 217 218 219 221 224 227 229 230
353 354 354 354 353 352 351 350 349 348 347 344 341 335 325 301 262 242 240 237 235 232 229 226 223 221 220 219 219 219 218 217 215 214 214 214 215 216 217 219 220 222 224
356 357 357 357 357 356 356 356 355 355 354 353 351 348 345 323 245 225 234 230 227 226 224 223 221 219 217 216 217 217 216 215 214 213 213 213 213 214 214 213 213 215 218
358 359 359 359 360 0 0 1 1 1 1 0 360 0 2 1 227 215 228 226 221 218 218 219 219 218 216 215 215 215 215 214 213 212 212 212 212 212 211 209 209 211 212
360 1 1 2 3 4 5 5 6 7 7 8 10 12 17 25 38 210 221 219 215 212 215 218 219 218 216 214 214 214 214 213 212 211 211 211 211 211 208 206 206 208 209
2 3 3 4 5 7 8 10 10 12 13 15 17 19 23 29 36 42 201 216 217 213 215 218 220 219 216 214 213 213 213 212 211 211 210 211 211 210 208 207 205 206 207
4 5 5 6 8 9 11 13 14 16 18 20 22 23 26 29 33 35 35 224 228 222 220 221 222 221 218 215 214 213 212 212 211 210 210 210 210 210 208 208 208 207 207
5 7 7 9 10 12 13 15 17 18 20 22 24 26 27 29 31 32 29 8 270 240 230 228 227 224 221 218 216 215 213 212 211 210 209 209 209 209 208 207 207 206 207
7 8 10 11 13 14 16 17 18 20 22 23 25 27 29 29 29 29 26 19 352 287 249 238 233 230 225 221 218 216 215 213 212 210 209 209 209 209 209 209 208 208 209
8 10 11 13 14 16 17 19 20 21 23 24 26 27 29 30 30 29 27 21 11 343 290 256 242 235 230 225 220 217 216 215 213 211 210 210 210 210 211 211 211 212 212
9 11 12 14 15 17 18 20 21 23 24 25 26 28 29 29 30 30 29 26 19 6 339 294 261 245 236 229 223 219 217 216 215 213 212 211 211 212 212 213 214 215 215
11 12 13 14 16 17 19 20 22 23 24 25 26 27 28 29 29 29 29 28 26 21 9 343 299 265 246 235 228 222 219 218 216 215 214 213 213 213 213 214 215 216 217
11 12 14 15 16 17 19 20 22 23 24 25 26 26 27 28 28 28 28 28 27 26 22 15 354 310 268 246 234 227 222 219 218 217 216 215 214 214 214 214 215 216 218
12 13 14 15 16 17 18 20 21 22 23 24 25 25 26 26 27 27 26 27 27 26 24 22 16 3 326 273 246 233 226 222 219 218 218 217 216 216 216 216 216 217 218
12 13 14 15 16 17 18 19 21 22 23 23 24 24 25 25 25 25 25 24 24 24 23 22 20 16 7 342 279 244 231 225 221 219 219 218 218 217 217 217 217 218 219
11 12 13 14 15 16 17 18 20 21 22 22 23 23 23 23 23 23 23 22 22 22 21 21 20 18 15 8 350 289 242 229 224 221 219 219 218 218 218 218 218 219 219
11 12 12 13 14 14 16 17 18 20 21 21 22 22 22 22 22 22 21 21 20 20 20 19 19 18 16 14 9 353 294 240 227 222 220 219 219 219 218 219 219 219 220
9 11 11 12 12 13 14 15 16 17 18 19 19 20 20 20 20 20 20 20 19 19 18 17 17 17 16 15 12 7 354 296 240 226 222 220 219 219 218 218 219 219 219
6 8 9 10 10 11 12 13 14 15 16 17 17 18 18 19 19 19 19 19 18 18 18 17 16 15 15 14 13 10 4 351 296 240 226 222 220 219 218 218 218 218 219
Height
5517 5505 5493 5482 5472 5462 5453 5445 5437 5430 5423 5417 5411 5406 5402 5400 5398 5398 5399 5401 5405 5408 5412 5417 5422 5427 5432 5438 5446 5455 5466 5479 5496 5512 5524 5536 5548 5562 5575 5588 5599 5609 5620
5510 5498 5486 5475 5465 5455 5446 5438 5429 5422 5414 5407 5401 5396 5392 5388 5386 5385 5385 5387 5391 5394 5399 5404 5409 5414 5420 5426 5432 5441 5450 5462 5476 5493 5506 5518 5531 5544 5557 5570 5582 5593 5604
5504 5492 5480 5468 5458 5448 5439 5430 5421 5412 5404 5396 5390 5385 5380 5377 5374 5372 5372 5374 5377 5380 5385 5390 5396 5402 5408 5414 5420 5428 5437 5447 5459 5474 5489 5500 5513 5526 5539 5552 5564 5576 5588
5498 5486 5474 5462 5451 5441 5431 5420 5410 5401 5391 5383 5377 5371 5366 5363 5361 5359 5359 5360 5363 5367 5372 5377 5383 5389 5396 5403 5409 5416 5425 5435 5445 5458 5472 5484 5496 5508 5521 5534 5547 5559 5571
5493 5481 5468 5457 5445 5434 5422 5411 5399 5388 5377 5367 5359 5353 5349 5346 5344 5344 5345 5346 5349 5353 5358 5364 5370 5377 5384 5391 5398 5406 5414 5423 5433 5444 5456 5468 5480 5491 5504 5516 5529 5541 5553
5489 5477 5464 5452 5439 5427 5414 5401 5388 5374 5361 5349 5338 5330 5326 5325 5325 5326 5328 5331 5335 5340 5345 5351 5358 5365 5373 5381 5388 5396 5405 5413 5423 5432 5442 5453 5464 5476 5488 5500 5512 5525 5539
5486 5473 5460 5446 5433 5420 5406 5392 5377 5361 5345 5331 5318 5308 5303 5302 5303 5307 5310 5315 5321 5327 5333 5339 5346 5353 5362 5370 5378 5387 5395 5404 5412 5422 5431 5440 5451 5463 5477 5489 5498 5509 5522
5483 5469 5456 5442 5428 5414 5399 5383 5366 5348 5331 5314 5301 5291 5286 5284 5285 5290 5294 5300 5307 5314 5321 5328 5335 5342 5351 5360 5368 5377 5386 5395 5404 5413 5422 5432 5440 5450 5461 5472 5482 5494 5506
5480 5466 5452 5438 5424 5409 5393 5376 5358 5339 5321 5304 5290 5280 5275 5272 5274 5278 5282 5288 5296 5303 5311 5317 5324 5332 5340 5349 5359 5368 5377 5386 5394 5403 5412 5421 5430 5439 5448 5458 5469 5480 5491
5478 5464 5449 5435 5420 5405 5388 5371 5352 5333 5314 5298 5284 5274 5269 5267 5268 5271 5275 5281 5288 5295 5302 5308 5315 5322 5330 5339 5349 5358 5367 5377 5386 5395 5403 5412 5420 5429 5437 5446 5457 5468 5479
5476 5462 5448 5434 5419 5403 5386 5369 5351 5332 5314 5297 5283 5274 5268 5266 5267 5269 5272 5277 5283 5289 5295 5301 5306 5313 5322 5331 5340 5349 5358 5368 5377 5386 5395 5403 5412 5420 5428 5437 5447 5457 5468
5475 5462 5448 5434 5419 5404 5387 5370 5353 5335 5317 5301 5287 5277 5272 5269 5269 5270 5273 5276 5281 5286 5290 5295 5301 5307 5315 5323 5332 5340 5350 5359 5369 5378 5387 5395 5404 5412 5420 5429 5438 5448 5458
5476 5463 5449 5435 5420 5405 5390 5374 5357 5340 5322 5306 5292 5283 5277 5274 5273 5273 5275 5277 5280 5284 5288 5292 5297 5302 5309 5316 5324 5332 5341 5350 5360 5369 5378 5387 5396 5404 5413 5421 5431 5440 5449
5477 5465 5451 5438 5423 5408 5393 5378 5362 5346 5330 5314 5301 5291 5284 5280 5278 5278 5278 5279 5281 5284 5286 5289 5293 5298 5303 5310 5317 5325 5333 5342 5351 5360 5370 5379 5388 5397 5406 5414 5423 5432 5441
5479 5467 5454 5441 5426 5412 5397 5382 5367 5351 5336 5323 5312 5301 5293 5288 5284 5282 5281 5281 5282 5283 5285 5287 5290 5294 5298 5304 5311 5318 5326 5334 5343 5352 5361 5370 5380 5389 5398 5406 5415 5423 5432
5482 5470 5458 5445 5431 5417 5403 5388 5373 5360 5346 5334 5322 5312 5303 5296 5290 5287 5285 5283 5283 5283 5285 5286 5288 5290 5294 5298 5304 5311 5318 5326 5334 5343 5352 5362 5371 5380 5389 5398 5407 5415 5423
5484 5473 5461 5449 5436 5423 5410 5397 5384 5370 5357 5345 5334 5323 5314 5306 5299 5294 5289 5287 5285 5284 5284 5284 5285 5287 5289 5293 5298 5304 5311 5318 5326 5335 5344 5353 5362 5371 5380 5389 5398 5407 5415
5487 5476 5465 5453 5441 5429 5417 5404 5392 5380 5368 5356 5345 5334 5324 5316 5308 5302 5296 5291 5288 5285 5284 5283 5283 5284 5286 5288 5292 5297 5304 5311 5318 5326 5335 5344 5353 5362 5371 5380 5389 5397 5406
5490 5480 5469 5458 5446 5435 5423 5411 5400 5388 5377 5366 5355 5344 5335 5326 5317 5310 5303 5297 5292 5288 5285 5282 5281 5281 5282 5284 5287 5291 5296 5303 5310 5318 5326 5334 5343 5352 5361 5371 5379 5388 5397
5493 5483 5473 5462 5452 5441 5430 5419 5407 5396 5385 5375 5364 5354 5344 5335 5326 5318 5311 5304 5298 5292 5287 5284 5281 5279 5279 5280 5281 5285 5289 5295 5302 5309 5317 5325 5334 5343 5352 5361 5370 5378 5387
5496 5486 5476 5467 5457 5446 5436 5425 5414 5404 5393 5383 5372 5362 5352 5343 5334 5326 5319 5311 5304 5298 5292 5286 5282 5279 5277 5276 5277 5279 5282 5287 5293 5300 5308 5316 5324 5333 5342 5351 5360 5368 5377
5499 5490 5480 5471 5461 5451 5441 5431 5420 5410 5400 5390 5380 5370 5360 5351 5342 5334 5325 5318 5310 5303 5297 5290 5285 5280 5276 5274 5273 5274 5276 5280 5285 5291 5298 5306 5314 5323 5332 5340 5349 5358 5367
5502 5493 5484 5474 5465 5456 5446 5436 5427 5417 5407 5397 5387 5377 5368 5359 5349 5341 5332 5324 5316 5309 5302 5295 5289 5283 5278 5274 5271 5270 5271 5273 5277 5282 5289 5296 5304 5312 5321 5330 5339 5348 5357
5504 5495 5487 5478 5469 5460 5451 5441 5432 5422 5413 5403 5394 5384 5374 5365 5356 5347 5338 5330 5322 5314 5306 5299 5293 5286 5280 5276 5272 5269 5268 5268 5271 5275 5280 5286 5294 5301 5310 5319 5328 5337 5346
5506 5498 5490 5481 5473 5464 5455 5446 5437 5427 5418 5409 5399 5390 5381 5371 5362 5353 5344 5335 5327 5319 5311 5303 5296 5290 5284 5278 5273 5269 5266 5265 5266 5268 5272 5277 5284 5291 5299 5308 5317 5326 5335
5508 5500 5492 5484 5476 5467 5459 5450 5441 5432 5423 5414 5405 5396 5387 5377 5368 5359 5350 5341 5332 5323 5315 5307 5300 5293 5286 5280 5275 5270 5266 5263 5262 5263 5265 5269 5274 5281 5288 5297 5306 5315 5324